DW0000 Weather Reports


Display with metric or nautical units.
time (UTC)temp
F
wind
direction
speed
MPH
gust
MPH
rain 1hr
in
rain 24hr
in
rain mn
in
humidity
%
barometer
mb
20260902185505 52 325 4.0 8.0 0.00 0.17 0.15 94 1019.3
20260902185005 53 317 4.0 8.0 0.00 0.17 0.15 94 1019.1
20260902184505 53 325 5.0 7.0 0.00 0.17 0.15 94 1019.1
20260902183006 53 325 5.0 7.0 0.00 0.17 0.15 94 1019.1
20260902182504 53 270 4.0 5.0 0.00 0.17 0.15 94 1019.0
20260902174004 53 268 5.0 7.0 0.02 0.17 0.15 95 1018.8
20260902173506 53 277 5.0 10.0 0.03 0.17 0.15 96 1018.8
20260902172504 53 283 3.0 10.0 0.03 0.17 0.15 96 1018.9
20260902170006 53 258 10.0 16.0 0.03 0.17 0.15 96 1018.9
20260902165506 53 290 8.0 21.0 0.03 0.17 0.15 96 1018.9
20260902164506 53 311 16.0 18.0 0.03 0.15 0.13 95 1018.7
20260902162506 53 312 9.0 10.0 0.12 0.15 0.12 94 1018.7
20260902161006 53 312 8.0 10.0 0.12 0.14 0.12 94 1018.6
20260902160010 53 312 10.0 15.0 0.12 0.14 0.12 93 1019.0
20260902155506 54 308 10.0 14.0 0.12 0.14 0.12 93 1018.9
20260902155008 54 312 11.0 15.0 0.11 0.14 0.11 93 1019.1
20260902154506 54 305 10.0 14.0 0.10 0.12 0.10 93 1018.7
20260902153506 54 307 13.0 18.0 0.05 0.07 0.05 92 1018.9
20260902153008 54 281 7.0 18.0 0.03 0.05 0.03 91 1019.0
20260902152506 55 302 10.0 18.0 0.00 0.03 0.00 90 1019.1
20260902152007 55 270 9.0 18.0 0.00 0.02 0.00 90 1019.1
20260902150007 55 288 7.0 14.0 0.00 0.02 0.00 89 1019.2
20260902145506 54 278 6.0 12.0 0.00 0.02 0.00 89 1019.2
20260902144007 54 305 8.0 12.0 0.00 0.02 0.00 89 1019.5
20260902143507 54 235 10.0 16.0 0.00 0.02 0.00 89 1019.5
20260902143006 54 273 7.0 13.0 0.00 0.02 0.00 90 1019.3
20260902142006 54 295 6.0 13.0 0.00 0.02 0.00 90 1019.4
20260902140505 54 275 6.0 15.0 0.00 0.02 0.00 90 1019.3
20260902135506 54 280 7.0 16.0 0.00 0.02 0.00 91 1019.3
20260902135008 54 268 9.0 16.0 0.00 0.02 0.00 92 1019.3
20260902134506 54 276 7.0 14.0 0.00 0.02 0.00 92 1019.4
20260902134007 54 312 8.0 16.0 0.00 0.02 0.00 92 1019.3
20260902133008 54 267 6.0 14.0 0.00 0.02 0.00 92 1019.2
20260902132506 54 307 9.0 16.0 0.00 0.02 0.00 92 1019.4
20260902132006 54 278 7.0 16.0 0.00 0.02 0.00 92 1019.3
20260902131508 54 259 9.0 15.0 0.00 0.02 0.00 93 1019.2
20260902131006 54 268 8.0 16.0 0.00 0.02 0.00 93 1019.4
20260902130505 54 258 6.0 16.0 0.00 0.02 0.00 93 1019.4
20260902124506 54 286 6.0 14.0 0.00 0.02 0.00 93 1019.1
20260902124006 55 299 8.0 18.0 0.00 0.02 0.00 94 1018.9
20260902123008 55 310 17.0 22.0 0.00 0.02 0.00 94 1018.8
20260902122508 55 293 7.0 14.0 0.00 0.02 0.00 94 1018.9
20260902121508 54 308 7.0 13.0 0.00 0.02 0.00 94 1019.2
20260902114506 54 291 8.0 15.0 0.00 0.02 0.02 94 1019.1
20260902114008 54 306 9.0 15.0 0.00 0.02 0.02 94 1019.0
20260902113006 54 307 12.0 18.0 0.00 0.02 0.02 94 1018.9
20260902112006 54 313 11.0 15.0 0.00 0.02 0.02 94 1019.0
20260902111505 54 307 9.0 13.0 0.00 0.02 0.02 94 1019.0
20260902105006 53 319 5.0 8.0 0.00 0.02 0.02 94 1019.1
20260902103508 53 320 9.0 13.0 0.00 0.02 0.02 94 1019.0
20260902102007 53 283 6.0 12.0 0.00 0.02 0.02 94 1019.0
20260902101007 54 309 9.0 14.0 0.00 0.02 0.02 94 1019.1
20260902100006 54 304 7.0 20.0 0.01 0.02 0.02 94 1019.2
20260902095506 54 315 11.0 16.0 0.01 0.02 0.02 94 1019.4
20260902094006 53 303 6.0 12.0 0.01 0.02 0.02 94 1019.1
20260902093008 53 314 6.0 13.0 0.01 0.02 0.02 93 1019.1
20260902092506 53 289 6.0 14.0 0.02 0.02 0.02 93 1019.1
20260902092006 53 305 7.0 15.0 0.02 0.02 0.02 93 1019.0
20260902091006 53 256 9.0 13.0 0.01 0.02 0.02 93 1019.1
20260902085007 54 264 9.0 18.0 0.00 0.01 0.01 93 1019.0
20260902084507 54 270 9.0 17.0 0.00 0.01 0.01 93 1018.9
20260902082507 54 240 12.0 21.0 0.00 0.00 0.00 93 1019.1
20260902082006 54 246 8.0 16.0 0.00 0.00 0.00 93 1019.2
20260902081505 54 256 7.0 13.0 0.00 0.00 0.00 93 1019.0
20260902081007 54 259 9.0 16.0 0.00 0.00 0.00 92 1019.0
20260902080006 54 247 9.0 15.0 0.00 0.00 0.00 92 1019.1
20260902075006 54 252 8.0 14.0 0.00 0.00 0.00 91 1019.1
20260902074008 54 273 7.0 15.0 0.00 0.00 0.00 90 1019.1
20260902073506 54 298 6.0 15.0 0.00 0.00 0.00 89 1018.9
20260902071506 55 253 9.0 15.0 0.00 0.00 0.00 89 1019.1
20260902070007 55 235 17.0 24.0 0.00 0.00 0.00 89 1019.1
20260902064506 55 270 9.0 17.0 0.00 0.00 0.00 90 1018.8
20260902063506 55 265 9.0 21.0 0.00 0.00 0.00 90 1018.8
20260902062507 55 254 10.0 21.0 0.00 0.00 0.00 90 1018.9
20260902062006 55 284 11.0 25.0 0.00 0.00 0.00 91 1018.3
20260902055006 55 259 12.0 22.0 0.00 0.00 0.00 92 1018.7
20260902053507 55 277 10.0 21.0 0.00 0.00 0.00 92 1018.6
20260902052007 56 294 16.0 28.0 0.00 0.00 0.00 91 1018.5
20260902051005 56 256 11.0 20.0 0.00 0.00 0.00 91 1018.7
20260902050507 56 293 9.0 21.0 0.00 0.00 0.00 91 1018.4
20260902050008 56 303 10.0 21.0 0.00 0.00 0.00 90 1018.6
20260902045505 56 276 10.0 23.0 0.00 0.00 0.00 89 1018.7
20260902045006 56 259 10.0 23.0 0.00 0.00 0.00 89 1018.5
20260902044507 57 255 14.0 30.0 0.00 0.00 0.00 88 1018.7
20260902044005 57 279 16.0 28.0 0.00 0.00 0.00 87 1018.5
20260902042006 58 252 12.0 17.0 0.00 0.00 0.00 82 1018.7
20260902041005 59 254 12.0 18.0 0.00 0.00 0.00 82 1018.6
20260902040507 59 257 12.0 21.0 0.00 0.00 0.00 81 1018.6
20260902035505 59 257 9.0 20.0 0.00 0.00 0.00 82 1018.6
20260902033507 59 292 14.0 26.0 0.00 0.00 0.00 82 1018.8
20260902032505 60 260 13.0 22.0 0.00 0.00 0.00 80 1018.7
20260902030506 61 288 7.0 20.0 0.00 0.00 0.00 77 1018.6
20260902030005 61 257 13.0 21.0 0.00 0.00 0.00 76 1018.7
20260902025505 61 257 12.0 20.0 0.00 0.00 0.00 76 1018.6
20260902024505 62 278 10.0 25.0 0.00 0.00 0.00 76 1019.0
20260902024005 61 251 12.0 21.0 0.00 0.00 0.00 77 1018.9
20260902021005 61 265 14.0 24.0 0.00 0.00 0.00 77 1019.2
20260902015007 64 264 13.0 22.0 0.00 0.00 0.00 74 1019.0
20260902014005 64 262 12.0 23.0 0.00 0.00 0.00 78 1019.3
20260902013505 63 279 10.0 21.0 0.00 0.00 0.00 77 1019.3
20260902013008 64 255 12.0 23.0 0.00 0.00 0.00 75 1019.3
20260902012505 64 289 11.0 25.0 0.00 0.00 0.00 75 1019.4
20260902011506 63 269 12.0 25.0 0.00 0.00 0.00 75 1019.6
20260902011004 63 263 14.0 24.0 0.00 0.00 0.00 77 1019.7
20260902010505 63 246 12.0 24.0 0.00 0.00 0.00 78 1019.5
20260902010006 63 301 13.0 24.0 0.00 0.00 0.00 78 1019.7
20260902004004 62 272 12.0 24.0 0.00 0.00 0.00 79 1019.8
20260902003507 61 268 10.0 23.0 0.00 0.00 0.00 81 1019.9
20260902003005 60 282 13.0 25.0 0.00 0.00 0.00 80 1019.8
20260902002505 60 271 13.0 22.0 0.00 0.00 0.00 77 1020.2
20260902002006 62 258 12.0 28.0 0.00 0.00 0.00 75 1020.3
20260902001505 63 296 16.0 26.0 0.00 0.00 0.00 77 1020.1
20260902000506 62 266 12.0 24.0 0.00 0.00 0.00 78 1020.1
20260902000005 62 295 15.0 24.0 0.00 0.00 0.00 78 1020.2
20260901235505 62 262 14.0 25.0 0.00 0.00 0.00 77 1020.1
20260901235007 62 258 13.0 23.0 0.00 0.00 0.00 77 1020.3
20260901231005 61 251 10.0 21.0 0.00 0.00 0.00 78 1020.3
20260901230006 63 255 13.0 28.0 0.00 0.00 0.00 77 1020.1
20260901224006 62 295 10.0 23.0 0.00 0.00 0.00 79 1020.0
20260901223505 62 252 13.0 23.0 0.00 0.00 0.00 79 1020.2
20260901223006 61 275 10.0 24.0 0.00 0.00 0.00 78 1020.2
20260901222506 61 275 10.0 24.0 0.00 0.00 0.00 77 1020.1
20260901222005 61 251 12.0 22.0 0.00 0.00 0.00 76 1020.0
20260901221006 61 284 13.0 25.0 0.00 0.00 0.00 76 1020.1
20260901215005 60 261 10.0 21.0 0.00 0.00 0.00 78 1020.2
20260901214005 60 268 10.0 22.0 0.00 0.00 0.00 78 1020.2
20260901212005 59 271 12.0 20.0 0.00 0.00 0.00 77 1020.2
20260901211004 59 256 13.0 26.0 0.00 0.00 0.00 78 1020.3
20260901210507 58 254 14.0 26.0 0.00 0.00 0.00 78 1020.2
20260901210005 58 243 14.0 21.0 0.00 0.00 0.00 80 1020.2
20260901205505 58 260 10.0 18.0 0.00 0.00 0.00 81 1019.9
20260901204506 57 264 10.0 23.0 0.00 0.00 0.00 83 1019.9
20260901203506 57 253 13.0 22.0 0.00 0.00 0.00 83 1019.8
20260901203005 56 258 13.0 22.0 0.00 0.00 0.00 83 1019.7
20260901201506 55 256 12.0 24.0 0.00 0.00 0.00 86 1019.9
20260901200504 55 252 16.0 25.0 0.00 0.00 0.00 87 1019.7
20260901195506 54 256 14.0 23.0 0.00 0.00 0.00 87 1019.7
20260901194504 54 259 11.0 22.0 0.00 0.00 0.00 87 1019.5
20260901194006 54 251 16.0 25.0 0.00 0.00 0.00 86 1019.6
20260901193504 54 279 11.0 23.0 0.00 0.00 0.00 87 1019.5
20260901193005 54 249 13.0 24.0 0.00 0.00 0.00 87 1019.4
20260901192506 54 250 16.0 29.0 0.00 0.00 0.00 87 1019.4